{"data":{"norad_id":61197,"intl_designator":"2024-170C","name":"TIANQI-31","alt_names":[],"object_type":"PAYLOAD","status":"ACTIVE","operator":null,"country":"PRC","launch_date":"2024-09-20","launch_site_code":"XICLF","launch_vehicle":null,"mission":null,"orbit_class":"UNKNOWN","rcs_meters":null,"size_class":null,"mass_kg":null,"dimensions":null,"purposes":[],"wikipedia_slug":null,"has_3d_model":false,"image_url":null,"decayed_at":null,"tle_current":{"epoch":"2026-05-25T03:56:19.593024Z","epoch_age_seconds":61194,"freshness":"FRESH","line1":"1 61197U 24170C   26145.16411566  .00000064  00000+0  13125-3 0  9990","line2":"2 61197  44.8618 240.0108 0007732 319.0511  40.9738 13.99131260 85729","mean_motion":13.9913126,"eccentricity":0.0007732,"inclination_deg":44.8618,"raan_deg":240.0108,"arg_perigee_deg":319.0511,"mean_anomaly_deg":40.9738,"bstar":0.00013125,"rev_number":8572,"period_min":102.92100828338,"perigee_km":891.18000644856,"apogee_km":902.42997674436,"semimajor_km":7274.9419915965,"source":"CELESTRAK","updated_at":"2026-05-25T13:38:02.314095Z"}}}